TimeMST,TemperatureF,Dew PointF,Humidity,Sea Level PressureIn,VisibilityMPH,Wind Direction,Wind SpeedMPH,Gust SpeedMPH,PrecipitationIn,Events,Conditions,WindDirDegrees,DateUTC
12:53 AM,33.1,25.0,72,29.88,10.0,SW,16.1,-,N/A,,Clear,220,2014-02-14 07:53:00
1:53 AM,30.0,24.1,79,29.90,10.0,SW,12.7,-,N/A,,Clear,220,2014-02-14 08:53:00
2:53 AM,30.0,23.0,75,29.91,10.0,SW,16.1,-,N/A,,Clear,220,2014-02-14 09:53:00
3:53 AM,30.9,23.0,72,29.92,10.0,SW,12.7,-,N/A,,Clear,230,2014-02-14 10:53:00
4:53 AM,32.0,23.0,69,29.94,10.0,SSW,15.0,-,N/A,,Partly Cloudy,210,2014-02-14 11:53:00
5:53 AM,32.0,21.9,66,29.94,10.0,SW,11.5,-,N/A,,Clear,220,2014-02-14 12:53:00
6:53 AM,32.0,21.9,66,29.91,10.0,SSW,13.8,-,N/A,,Clear,210,2014-02-14 13:53:00
7:53 AM,32.0,21.0,64,29.90,10.0,SW,11.5,-,N/A,,Clear,220,2014-02-14 14:53:00
8:53 AM,35.1,21.0,57,29.87,10.0,SSW,13.8,-,N/A,,Clear,210,2014-02-14 15:53:00
9:53 AM,37.0,21.9,54,29.84,10.0,SSW,15.0,-,N/A,,Clear,210,2014-02-14 16:53:00
10:53 AM,37.0,23.0,57,29.80,10.0,SW,11.5,-,N/A,,Clear,220,2014-02-14 17:53:00
11:53 AM,39.0,23.0,53,29.76,10.0,SSW,10.4,-,N/A,,Clear,210,2014-02-14 18:53:00
12:53 PM,39.0,21.0,49,29.70,10.0,SW,15.0,-,N/A,,Overcast,220,2014-02-14 19:53:00
1:53 PM,41.0,21.0,45,29.64,10.0,SSW,11.5,-,N/A,,Scattered Clouds,210,2014-02-14 20:53:00
2:53 PM,39.9,24.1,53,29.62,10.0,SW,9.2,-,N/A,,Partly Cloudy,230,2014-02-14 21:53:00
3:53 PM,42.1,23.0,47,29.59,10.0,SW,9.2,-,N/A,,Partly Cloudy,220,2014-02-14 22:53:00
4:53 PM,41.0,27.0,57,29.56,10.0,SW,20.7,-,N/A,,Mostly Cloudy,220,2014-02-14 23:53:00
5:53 PM,39.9,30.0,68,29.56,10.0,SW,19.6,-,N/A,,Clear,220,2014-02-15 00:53:00
6:53 PM,37.0,30.0,76,29.58,10.0,SW,17.3,-,N/A,,Clear,220,2014-02-15 01:53:00
7:53 PM,37.9,30.0,73,29.60,10.0,NW,8.1,-,N/A,,Clear,320,2014-02-15 02:53:00
8:53 PM,36.0,28.0,73,29.61,10.0,WSW,17.3,-,N/A,,Clear,250,2014-02-15 03:53:00
9:53 PM,34.0,28.0,79,29.63,10.0,SW,17.3,-,N/A,,Clear,230,2014-02-15 04:53:00
10:53 PM,35.1,27.0,72,29.66,10.0,SW,19.6,-,N/A,,Clear,220,2014-02-15 05:53:00
11:53 PM,34.0,27.0,75,29.68,10.0,SW,16.1,-,N/A,,Clear,220,2014-02-15 06:53:00